Calgary / Springba, Alberta

7:13 PM MST on December 05, 2016 (GMT -0700)
Springbank

Weather History for CYBW - November, 2010

Change the Weather History Date:

Friday, November 26, 2010

  Actual Average Record
Temperature  
Mean Temperature 28 °F -  
Max Temperature 38 °F 31 °F 46 °F (2016)
Min Temperature 14 °F 11 °F -18 °F (2006)
Degree Days  
Heating Degree Days 38    
Moisture  
Dew Point 16 °F    
Average Humidity 61    
Maximum Humidity 79    
Minimum Humidity 42    
Precipitation  
Precipitation 0.00 in - - ()
Sea Level Pressure  
Sea Level Pressure 29.79 in    
Wind  
Wind Speed 9 mph ()    
Max Wind Speed 31 mph    
Max Gust Speed 37 mph    
Visibility 15.0 miles    
Events Snow    
Averages and records for this station are not official NWS values.
T = Trace of Precipitation, MM = Missing Value Source: Averaged Metar Reports

Daily Weather History Graph

Daily Weather History Graph

Search for Another Location

Airport or City:

Trip Planner

Search our weather history database for the weather conditions in past years. The results will help you decide how hot, cold, wet, or windy it might be!

Date:

Astronomy

Nov. 26, 2010 Rise Set
Actual Time 8:11 AM MST 4:37 PM MST
Civil Twilight 7:33 AM MST 5:15 PM MST
Nautical Twilight 6:52 AM MST 5:56 PM MST
Astronomical Twilight 6:12 AM MST 6:36 PM MST
Moon 10:04 PM MST (11/26) 12:11 PM MST (11/26)
Length of Visible Light 9h 41m
Length of Day
8h 25m
Waning Gibbous, 73% of the Moon is Illuminated
Nov 26
Waning Gibbous
Nov 28
Last Quarter
Dec 5
New
Dec 13
First Quarter
Dec 21
Full

Hourly Weather History & Observations

Time (MST) Temp. Windchill Dew Point Humidity Pressure Visibility Wind Dir Wind Speed Gust Speed Precip Events Conditions
5:00 AM 24 °F - 17 °F 64% 29.87 in 15 mi NW 8.1 mph - -   Overcast
5:00 AM 24.8 °F 16.1 °F 17.6 °F 74% 29.87 in 15.0 mi NW 8.1 mph - N/A   Overcast
6:00 AM 23.0 °F 17.0 °F 15.8 °F 74% 29.85 in 15.0 mi South 4.6 mph - N/A   Overcast
7:00 AM 24.8 °F 15.3 °F 15.8 °F 69% 29.84 in 15.0 mi SSE 9.2 mph - N/A   Overcast
8:00 AM 21.2 °F 16.4 °F 14.0 °F 74% 29.83 in 30.0 mi NNW 3.5 mph - N/A   Overcast
9:00 AM 23.0 °F 17.0 °F 14.0 °F 68% 29.82 in 30.0 mi NNW 4.6 mph - N/A   Mostly Cloudy
10:00 AM 24.8 °F 16.1 °F 15.8 °F 69% 29.81 in 30.0 mi North 8.1 mph - N/A   Scattered Clouds
11:00 AM 31 °F - 17 °F 42% 29.76 in 28 mi NNW 4.6 mph - -   Scattered Clouds
11:00 AM 30.2 °F 24.3 °F 15.8 °F 55% 29.76 in 30.0 mi North 5.8 mph - N/A   Partly Cloudy
12:00 PM 28.4 °F 21.2 °F 17.6 °F 64% 29.74 in 30.0 mi South 6.9 mph - N/A   Partly Cloudy
1:00 PM 33.8 °F 29.6 °F 17.6 °F 52% 29.74 in 30.0 mi WNW 4.6 mph - N/A   Partly Cloudy
2:00 PM 37.4 °F 29.3 °F 19.4 °F 48% 29.72 in 30.0 mi West 12.7 mph 23.0 mph N/A   Partly Cloudy
3:00 PM 35.6 °F 23.0 °F 21.2 °F 56% 29.71 in 30.0 mi West 27.6 mph 36.8 mph N/A Snow Low Drifting Snow
5:00 PM 31 °F - 18 °F 45% 29.77 in 28 mi West 23.0 mph - - Snow Low Drifting Snow
5:00 PM 30.2 °F 16.5 °F 17.6 °F 60% 29.77 in 30.0 mi West 24.2 mph - N/A Snow Low Drifting Snow
7:00 PM 30.2 °F 14.9 °F 17.6 °F 60% 29.73 in 15.0 mi West 31.1 mph 36.8 mph N/A Snow Low Drifting Snow
8:00 PM 30.2 °F 17.8 °F 15.8 °F 55% 29.77 in 15.0 mi West 19.6 mph 31.1 mph N/A Snow Low Drifting Snow
9:00 PM 24.8 °F 15.3 °F 14.0 °F 64% 29.79 in 15.0 mi WNW 9.2 mph - N/A   Partly Cloudy
10:00 PM 28.4 °F 16.6 °F 14.0 °F 55% 29.81 in 15.0 mi West 16.1 mph - N/A Snow Low Drifting Snow
11:00 PM 14.0 °F 6.5 °F 8.6 °F 79% 29.81 in 15.0 mi West 4.6 mph - N/A   Partly Cloudy